This is the latest recevied weather packets stored in our database for station/object WW5JC. If no packets are shown the sender has not sent any weather packets the latest 10 day(s).
| Time | Temp. | Humidity | Pressure | Rain* | Wind** | Luminosity | Snow |
|---|---|---|---|---|---|---|---|
| 1788513863 | 23.33° C | 91% | 1016 hPa | 0 mm | - | 0 W/m² | - |
| 1788513255 | 22.78° C | 93% | 1016 hPa | 0 mm | - | 0 W/m² | - |
| 1788512340 | 23.33° C | 92% | 1015.7 hPa | 0 mm | - | 0 W/m² | - |
| 1788511432 | 23.89° C | 90% | 1015.7 hPa | 0 mm | - | 0 W/m² | - |
| 1788511127 | 23.89° C | 90% | 1015.7 hPa | 0 mm | - | 0 W/m² | - |
| 1788510823 | 23.89° C | 90% | 1015.7 hPa | 0 mm | - | 0 W/m² | - |
| 1788510519 | 23.89° C | 89% | 1015.8 hPa | 0 mm | - | 0 W/m² | - |
| 1788510213 | 23.89° C | 89% | 1015.6 hPa | 0 mm | - | 0 W/m² | - |
| 1788509909 | 23.89° C | 90% | 1015.6 hPa | 0 mm | - | 0 W/m² | - |
| 1788509604 | 23.89° C | 89% | 1015.7 hPa | 0 mm | - | 0 W/m² | - |
| 1788509300 | 24.44° C | 89% | 1015.6 hPa | 0 mm | - | 0 W/m² | - |
| 1788508995 | 24.44° C | 89% | 1015.7 hPa | 0 mm | - | 0 W/m² | - |
| 1788508686 | 24.44° C | 89% | 1015.5 hPa | 0 mm | - | 0 W/m² | - |
| 1788508386 | 24.44° C | 89% | 1015.7 hPa | 0 mm | - | 0 W/m² | - |
| 1788508084 | 24.44° C | 89% | 1015.6 hPa | 0 mm | - | 0 W/m² | - |
| 1788507780 | 24.44° C | 88% | 1015.5 hPa | 0 mm | - | 0 W/m² | - |
| 1788507476 | 24.44° C | 88% | 1015.8 hPa | 0 mm | - | 0 W/m² | - |
| 1788507171 | 24.44° C | 88% | 1015.5 hPa | 0 mm | - | 0 W/m² | - |
| 1788506868 | 25° C | 87% | 1015.7 hPa | 0 mm | - | 0 W/m² | - |
| 1788506566 | 25° C | 87% | 1015.6 hPa | 0 mm | - | 0 W/m² | - |
| 1788506262 | 25° C | 86% | 1015.8 hPa | 0 mm | - | 0 W/m² | - |
| 1788505957 | 25° C | 87% | 1015.8 hPa | 0 mm | - | 0 W/m² | - |
| 1788505652 | 25° C | 86% | 1015.8 hPa | 0 mm | - | 0 W/m² | - |
| 1788505350 | 25° C | 86% | 1015.7 hPa | 0 mm | - | 0 W/m² | - |
| 1788505045 | 25° C | 86% | 1015.7 hPa | 0 mm | - | 0 W/m² | - |
* Rain latest hour (hover to see other rain measurements)
** Current wind speed in m/s (hover to see current wind gust speed)